{"data":{"norad_id":68552,"intl_designator":"2026-070L","name":"STARLINK-37295","alt_names":[],"object_type":"PAYLOAD","status":"ACTIVE","operator":null,"country":"US","launch_date":"2026-04-02","launch_site_code":"AFETR","launch_vehicle":null,"mission":null,"orbit_class":"UNKNOWN","rcs_meters":null,"size_class":null,"mass_kg":null,"dimensions":null,"purposes":["comms"],"wikipedia_slug":null,"has_3d_model":false,"image_url":null,"decayed_at":null,"tle_current":{"epoch":"2026-05-25T00:00:27.877824Z","epoch_age_seconds":89162,"freshness":"FRESH","line1":"1 68552U 26070L   26145.00032266  .00008041  00000+0  24888-3 0  9993","line2":"2 68552  53.1601   7.7506 0001172  86.3507 273.7630 15.34397351  8242","mean_motion":15.34397351,"eccentricity":0.0001172,"inclination_deg":53.1601,"raan_deg":7.7506,"arg_perigee_deg":86.3507,"mean_anomaly_deg":273.763,"bstar":0.00024888,"rev_number":824,"period_min":93.847920101108,"perigee_km":461.90936620577,"apogee_km":463.5128610036,"semimajor_km":6840.8481136047,"source":"CELESTRAK","updated_at":"2026-05-25T13:38:21.961627Z"}}}